Location: Madrid
(40.4000°N, 3.6830°W)
Time: 16:23:59
(UTC+02:00)

ISS - Pass Details

Date: 12 March 2021
Orbit: 418 x 422 km, 51.6° (Epoch: 16 April)

Event Time Altitude Azimuth Distance (km) Brightness Sun altitude
Exits shadow 05:48:39 73° 356° (N) 439 -3.8 -20.2°
Maximum altitude 05:48:50 77° 36° (NE) 432 -3.7 -20.2°
Drops below altitude 10° 05:52:10 10° 123° (ESE) 1,490 -0.4 -19.6°
Sets 05:54:16 0° 125° (SE) 2,351 0.7 -19.2°
